METEOR 2-17 DEB

Satellite information

Favourite Embed

Satellite Type and Status

DEBRISIN ORBIT

Key statistics

Satellite METEOR 2-17 DEB at a glance.

Uptime

13674

Days in orbit

Revolutions

≈ 14.0

Per day

Orbit

LEO

Low Earth Orbit

Inclination

82.5

Latest

Satellite identification and parameters

Extended collection of information and parameters for METEOR 2-17 DEB.

Object identification

Identified? True

Debris? True

Object name: METEOR 2-17 DEB

International designator: 1988-005X

Object number (NORAD): 31402

Object ID (CCSDS): 31402

Country: COMMONWEALTH OF INDEPENDENT STATES (CIS)

Current information (Y/N): Y

RCS size: SMALL

Orbital parameters

Period: 102.583 minutes

Inclination: 82.5406 deg

SMA: 7259.015 km

Apoapsis: 888.058 km

Periapsis: 873.702 km

RAAN: 185.9728 deg

Eccentricy: 0.0009888

Argument of periapsis: 115.4329 deg

Mean anomaly: 275.0961 deg

Mean motion: 14.03738479 rev/day

Mean motion (dot): 0.00001801 rev/day2

B* drag term: 0.0011353 1/REarth

Two-line elements (TLE)

Creation date: July 7, 2025, 6:34 p.m.

Reference frame: TEME

Reference center: EARTH

Epoch: July 6, 2025, 11:48 p.m. UTC

TLE line 0: 0 METEOR 2-17 DEB

TLE line 1: 1 31402U 88005X 25187.99217900 .00001801 00000-0 11353-2 0 9996

TLE line 2: 2 31402 82.5406 185.9728 0009888 115.4329 275.0961 14.03738479950263

Live tracking on map

Real-time ground track for satellite METEOR 2-17 DEB.

In-orbit conjunctions

A list of the most updated potential collisions computed for object METEOR 2-17 DEB.

Target Orbit TCA Probability of collision Miss distance Type
COSMOS 1365 LEO 2025-01-16 01:23:57 0.0001056524 918.0 (m) PAYLOAD
COSMOS 249 DEB LEO 2024-09-27 04:49:33 0.0001898611 727.0 (m) DEBRIS

Associated space launch

Second generation soviet meteorological satellite

METEOR 2-17 DEB was lifted into orbit during the mission ‘Tsiklon-3 | Meteor-2 17’, on board a Tsiklon-3 space rocket.

The launch took place on Jan. 30, 1988, 10:59 a.m. from 32/1.

For more information about the launch, click the button.

Launch to space Tsiklon-3 | Meteor-2 17
Tsiklon-3 | Meteor-2 17

Agency: N/A

Status: Launch Successful

Launch date: Jan. 30, 1988, 10:59 a.m. UTC

Rocket: Tsiklon-3

Launch pad: 32/1

Location: Plesetsk Cosmodrome, Russian Federation

...

Latest news about this satellite

There are no fresh news available about this satellite. Check back as we update our databases every day.


Newsletter sign-up

Weekly statistics, charts and insights to help you stay on top of the space industry.